Weather in Verkhniy Fiagdon

Russia / Republic of North Ossetia — Alania     42°50′03″N   44°18′25″E
temp.,
°C
wind,
m/s
gust,
m/s
humid.,
%
clouds,
%
prec.,
mm/h
press.,
hPa
HPBL,
m
7 march, sun
sun700:00−10ssw6868100 0.0 1017126
03:00−11ssw578897 0.0 1018113
06:00−14wsw129991 0.9 102271
09:00−10ssw349488 1.3 1022272
12:00−8sw469073 0.5 1021652
15:00−7sw578576 1.0 1020837
18:00−12ssw559268 0.1 102282
21:00−13s559163 0.2 102392
8 march, mon
mon800:00−12s668468 0.0 102283
03:00−12s558645 0.0 102257
06:00−13s448836 0.1 102142
09:00−8s458655 0.3 1019272
12:00−7s3482100 0.3 1017513
15:00−8sw3489100 0.9 1016475
18:00−13ssw339699 0.3 101736
21:00−15ssw339184 0.4 101933
9 march, tue
tue900:00−17s338951 0.0 101935
03:00−17s448954 0.1 101847
06:00−18s448675 0.0 101955
09:00−13ssw467450 0.0 1018296
12:00−11sw56760 0.0 1017675
15:00−11sw56733 0.0 1017807
18:00−17ssw44907 0.0 101942
21:00−19s448828 0.0 102258
10 march, wed
wed1000:00−19s458525 0.0 102360
03:00−20s448212 0.0 102451
06:00−19s44741 0.0 102544
09:00−13ssw45710 0.0 1024315
12:00−10ssw567651 0.1 1021528
15:00−10sw567345 0.2 1020577
18:00−14ssw4494100 0.1 102072
21:00−14s668995 0.2 1020131
11 march, thu
thu1100:00−13s6788100 0.4 1018211
03:00−13s559199 1.1 1018114
06:00−14s3392100 0.4 101667
09:00−13n1294100 3.0 1017347
12:00−13n3395100 1.6 1017342
15:00−15n4396100 3.6 1017370
18:00−19n3499100 1.1 1020128
21:00−22ne23100100 1.5 102325